Weather History for Burbank, CA

Change the Weather History Date:

Thursday, January 9, 2014

  Actual Average Record
Temperature  
Mean Temperature 59 °F 55 °F  
Max Temperature 71 °F 68 °F 88 °F (1983)
Min Temperature 47 °F 42 °F 31 °F (1972)
Degree Days  
Heating Degree Days 6 10  
Month to date heating degree days 36 96  
Since 1 July heating degree days 334 663  
Cooling Degree Days 0 0  
Month to date cooling degree days 2 0  
Year to date cooling degree days 2 0  
Growing Degree Days 7 (Base 50)    
Moisture  
Dew Point 46 °F    
Average Humidity 66    
Maximum Humidity 93    
Minimum Humidity 39    
Precipitation  
Precipitation 0.00 in 0.11 in 2.62 in (2005)
Month to date precipitation 0.00 0.99  
Year to date precipitation 0.00 0.99  
Since 1 July precipitation 0.43 5.75  
Sea Level Pressure  
Sea Level Pressure 30.04 in    
Wind  
Wind Speed 3 mph (NE)    
Max Wind Speed 15 mph    
Max Gust Speed 22 mph    
Visibility 3 miles    
Events Fog    
T = Trace of Precipitation, MM = Missing Value Source: NWS Daily Summary

Daily Weather History Graph

Daily Weather History Graph

Search for Another Location

Airport:

Trip Planner

Search our weather history database for the weather conditions in past years. The results will help you decide how hot, cold, wet, or windy it might be!

Date:

Astronomy

Jan. 09, 2014 Rise Set
Actual Time 6:59 AM PST 5:01 PM PST
Civil Twilight 6:32 AM PST 5:29 PM PST
Nautical Twilight 6:01 AM PST 6:00 PM PST
Astronomical Twilight 5:31 AM PST 6:30 PM PST
Moon 12:25 PM PST (1/9) 1:18 AM PST (1/9)
Length of Visible Light 10h 56m
Length of Day
10h 01m
Waxing Gibbous, 67% of the Moon is Illuminated
Jan 9
Waxing Gibbous
Jan 15
Full
Jan 23
Last Quarter
Jan 30
New
Feb 6
First Quarter

Hourly Weather History & Observations

Time (PST) Temp. Windchill Dew Point Humidity Pressure Visibility Wind Dir Wind Speed Gust Speed Precip Events Conditions
12:53 AM 54.0 °F - 50.0 °F 86% 30.02 in 2.5 mi ESE 3.5 mph - N/A   Scattered Clouds
1:01 AM 53.6 °F - 50.0 °F 88% 30.05 in 2.0 mi Calm Calm - N/A   Mostly Cloudy
1:24 AM 53.6 °F - 48.2 °F 82% 30.05 in 0.2 mi ESE 4.6 mph - N/A Fog Fog
1:53 AM 53.1 °F - 50.0 °F 89% 30.02 in 0.2 mi ESE 4.6 mph - N/A Fog Fog
2:53 AM 53.1 °F - 50.0 °F 89% 30.04 in 0.2 mi Calm Calm - N/A Fog Fog
3:00 AM 53.6 °F - 50.0 °F 88% 30.06 in 0.5 mi Calm Calm - N/A Fog Fog
3:21 AM 51.8 °F - 48.2 °F 88% 30.06 in 0.8 mi North 4.6 mph - N/A   Mist
3:29 AM 51.8 °F - 46.4 °F 82% 30.05 in 2.0 mi North 3.5 mph - N/A   Overcast
3:41 AM 50.0 °F - 46.4 °F 87% 30.05 in 3.0 mi North 3.5 mph - N/A   Overcast
3:48 AM 50.0 °F - 46.4 °F 87% 30.05 in 1.8 mi Calm Calm - N/A   Overcast
3:49 AM 50.0 °F - 46.9 °F 89% 30.03 in 1.8 mi Calm Calm - N/A   Overcast
4:00 AM 51.8 °F - 48.2 °F 88% 30.04 in 0.8 mi Calm Calm - N/A   Overcast
4:09 AM 50.0 °F - 46.4 °F 87% 30.05 in 1.2 mi NNW 4.6 mph - N/A   Overcast
4:19 AM 48.2 °F - 44.6 °F 87% 30.05 in 3.0 mi NW 5.8 mph - N/A   Overcast
4:53 AM 50.0 °F - 39.0 °F 66% 30.03 in 9.0 mi West 4.6 mph - N/A   Mostly Cloudy
5:00 AM 50.0 °F - 39.2 °F 66% 30.05 in 9.0 mi West 5.8 mph - N/A   Scattered Clouds
5:29 AM 48.2 °F - 44.6 °F 87% 30.05 in 1.0 mi Calm Calm - N/A   Mist
5:32 AM 46.4 °F - 44.6 °F 93% 30.04 in 0.2 mi Calm Calm - N/A Fog Fog
5:53 AM 46.9 °F - 44.1 °F 90% 30.02 in 0.2 mi Calm Calm - N/A Fog Fog
6:31 AM 46.4 °F 45.2 °F 44.6 °F 93% 30.04 in 0.2 mi North 3.5 mph - N/A Fog Fog
6:42 AM 48.2 °F - 44.6 °F 87% 30.05 in 0.8 mi NNE 3.5 mph - N/A   Mist
6:50 AM 46.4 °F - 44.6 °F 93% 30.06 in 1.8 mi Calm Calm - N/A   Overcast
6:53 AM 46.9 °F - 45.0 °F 93% 30.04 in 1.8 mi Calm Calm - N/A   Overcast
7:04 AM 48.2 °F - 44.6 °F 87% 30.06 in 0.2 mi Calm Calm - N/A Fog Fog
7:43 AM 48.2 °F - 44.6 °F 87% 30.06 in 0.2 mi WNW 3.5 mph - N/A Fog Fog
7:53 AM 48.0 °F - 46.0 °F 93% 30.05 in 0.2 mi Calm Calm - N/A Fog Fog
8:27 AM 48.2 °F - 46.4 °F 93% 30.09 in 0.2 mi Calm Calm - N/A Fog Fog
8:50 AM 48.2 °F - 46.4 °F 93% 30.09 in 1.8 mi Calm Calm - N/A   Scattered Clouds
8:53 AM 48.9 °F - 46.0 °F 90% 30.07 in 2.0 mi Calm Calm - N/A   Scattered Clouds
9:17 AM 50.0 °F - 46.4 °F 87% 30.10 in 3.0 mi Calm Calm - N/A   Clear
9:53 AM 54.0 °F - 46.9 °F 77% 30.09 in 3.0 mi Calm Calm - N/A   Haze
10:53 AM 59.0 °F - 46.9 °F 64% 30.06 in 4.0 mi Calm Calm - N/A   Haze
11:53 AM 64.0 °F - 46.0 °F 52% 30.02 in 5.0 mi Calm Calm - N/A   Haze
12:53 PM 66.0 °F - 42.1 °F 42% 29.99 in 8.0 mi Calm Calm - N/A   Clear
1:53 PM 68.0 °F - 43.0 °F 40% 29.94 in 10.0 mi SSW 3.5 mph - 0.00 in   Clear
3:53 PM 64.9 °F - 48.9 °F 56% 29.94 in 6.0 mi ESE 11.5 mph 19.6 mph N/A   Haze
4:53 PM 61.0 °F - 50.0 °F 67% 29.96 in 5.0 mi East 9.2 mph - N/A   Haze
5:53 PM 60.1 °F - 50.0 °F 69% 29.98 in 6.0 mi SE 5.8 mph - N/A   Haze
6:53 PM 59.0 °F - 50.0 °F 72% 29.99 in 6.0 mi East 5.8 mph - N/A   Haze
7:53 PM 57.9 °F - 48.9 °F 72% 30.01 in 6.0 mi ENE 4.6 mph - N/A   Haze
8:53 PM 57.0 °F - 48.9 °F 74% 30.02 in 5.0 mi East 3.5 mph - N/A   Haze
9:53 PM 55.0 °F - 48.0 °F 77% 30.03 in 4.0 mi Calm Calm - N/A   Haze
10:53 PM 52.0 °F - 45.0 °F 77% 30.04 in 4.0 mi Calm Calm - N/A   Haze
11:53 PM 51.1 °F - 44.1 °F 77% 30.04 in 5.0 mi Calm Calm - N/A   Haze